カタログに戻る

SL-16 DEB

運用中LEO
NORAD 29098·DEBRIS·🇷🇺 Russia

打ち上げ Mar 26, 1993 から Baikonur Cosmodrome

Loading…

次のパス (今後24時間)

TLE

最新Source: Space-Track

元期: Sep 14, 2026, 14:08 UTC

1 29098U 93016AM  26257.58922516  .00000250  00000-0  14135-3 0  9991
2 29098  70.9256 336.7379 0079739  61.7894   4.1605 14.17872933683465

AllMySatでSL-16 DEBをリアルタイム追跡

Download on the App Store